Regional Weather Roundup
Issued by NWS Sioux Falls, SD

Home | Current Version | Previous Version | Text Only | Print | Product List | Glossary On
Versions: 1 2 3 4 5 6 7 8 9 10 11 12 13 14 15 16 17 18 19 20 21 22 23 24 25 26 27 28 29 30 31 32 33 34 35 36 37 38 39 40 41 42 43 44 45 46 47 48 49 50
000
ASUS43 KFSD 040502
RWRFSD

WEATHER ROUNDUP FOR SE SOUTH DAKOTA/SW MINNESOTA/NW IOWA
NATIONAL WEATHER SERVICE SIOUX FALLS SD
1200 AM CDT SAT JUL 04 2015

NOTE: "FAIR" INDICATES FEW OR NO CLOUDS BELOW 12,000 FEET WITH NO
SIGNIFICANT WEATHER AND OR OBSTRUCTIONS TO VISIBILITY.


SDZ038>040-050-052>070-040600-
SOUTHEAST SOUTH DAKOTA

CITY           SKY/WX    TMP DP  RH WIND       PRES   REMARKS
BROOKINGS      CLEAR     66  63  88 S5        29.97S
CHAMBERLAIN    NOT AVBL
HURON          CLEAR     71  65  81 S7        29.93R
MADISON        FAIR      64  64 100 S5        29.97S
MITCHELL       CLEAR     72  64  76 S9        29.94S
SIOUX FALLS    MOCLDY    69  62  78 SW3       29.96S
WINNER         FAIR      72  61  68 S13       29.96R
YANKTON        CLEAR     68  63  83 CALM      29.95S
$$

MNZ071-072-080-081-089-090-097-098-040600-
SOUTHWEST MINNESOTA

CITY           SKY/WX    TMP DP  RH WIND       PRES   REMARKS
FAIRMONT       CLEAR     64  55  72 CALM      29.95S
JACKSON        CLEAR     66  57  72 SW7       29.98R
LUVERNE        CLEAR     64  61  88 CALM      29.97S
MARSHALL       PTCLDY    72  63  73 SW8       29.92
MONTEVIDEO     MOCLDY    70  64  83 CALM      29.93S
PIPESTONE      CLEAR     64  63  94 SW3       29.97S
REDWOOD FALLS  PTCLDY    70  61  73 S3        29.92S
TRACY          PTCLDY    71  66  84 SW7       29.95S
WINDOM         CLEAR     66  61  82 CALM      29.96S
WORTHINGTON    CLEAR     64  57  77 SW8       29.98R
$$

IAZ001>003-012>014-020>022-031-032-NEZ013-014-SDZ071-040600-
NORTHWEST IOWA

CITY           SKY/WX    TMP DP  RH WIND       PRES   REMARKS
DENISON        CLOUDY    59  57  94 CALM      29.98S
ESTHERVILLE    CLEAR     62  58  86 SW6       29.97R
SIOUX CITY     CLEAR     64  59  83 CALM      29.98R
SPENCER        CLEAR     62  56  80 SW8       29.98R
$$

ABBREVIATIONS USED IN REMARKS
   TC - TEMPERATURE IN CELSIUS
  WCI - WIND CHILL INDEX
   HX - HEAT INDEX
  VSB - VISIBILITY



USA.gov is the U.S. government's official web portal to all federal, state and local government web resources and services.